Flag for U.S.A. Weather past 2 weeks in St. Croix Falls, Wisconsin, U.S.A.

Now
32 °F

Ice fog.


Feels Like: 22 °F
Forecast: 29 / 34 °F
Wind: 13 mph from Southeast

Location: L O Simenstad Municipal Airport

Current Time: Dec 21, 2014 at 6:13:42 AM

Latest Report: Dec 21, 2014 at 5:35 AM


Visibility: 5 mi

Pressure: 29.97 "Hg

Humidity: 100%

Dew point: 32 °F

Location of St. Croix FallsLocation

Historic Weather in St. Croix Falls — Graph

°F

St. Croix Falls temperature yesterday

Maximum temperature yesterday: 32 °F (at 11:55 AM)
Minimum temperature yesterday: 29 °F (at 12:15 AM)
Average temperature yesterday: 31 °F

Past Weeks' High & Low Weather Summary

 TemperatureHumidityPressure
High48 °F (Dec 15, 4:15 AM)100% (Dec 6, 4:15 AM)30.69 "Hg (Dec 6, 4:15 AM)
Low11 °F (Dec 17, 7:55 AM)59% (Dec 6, 2:55 PM)29.72 "Hg (Dec 15, 1:35 PM)
Average29 °F92%30.21 "Hg
* Reported Dec 6 4:15 AM — Dec 21 4:55 AM, St. Croix Falls, Weather by CustomWeather, © 2014

Note: Actual official high and low records may vary slightly from our data, if they occured in-between our weather recording intervals... More about our weather records

Advertising

St. Croix Falls weather history for previous 24 hours

 ConditionsComfort  
Time TempWeatherWind HumidityBarometerVisibility
4:55 AM
Dec 21
32 °FIce fog.12 mph100%29.99 "Hg5 mi
4:35 AM32 °FIce fog.8 mph100%30.00 "Hg5 mi
4:15 AM32 °FOvercast.10 mph96%30.01 "Hg7 mi
3:55 AM32 °FOvercast.12 mph92%30.02 "Hg10 mi
3:35 AM32 °FOvercast.12 mph90%30.04 "Hg10 mi
3:15 AM32 °FOvercast.8 mph90%30.04 "Hg10 mi
2:55 AM32 °FOvercast.9 mph88%30.05 "Hg10 mi
2:35 AM32 °FOvercast.9 mph88%30.06 "Hg10 mi
2:15 AM32 °FOvercast.5 mph87%30.07 "Hg10 mi
1:55 AM32 °FOvercast.6 mph87%30.08 "Hg10 mi
1:35 AM32 °FOvercast.6 mph87%30.08 "Hg10 mi
1:15 AM32 °FOvercast.7 mph87%30.09 "Hg10 mi
12:55 AM32 °FOvercast.6 mph87%30.09 "Hg10 mi
12:35 AM32 °FOvercast.7 mph88%30.10 "Hg10 mi
12:15 AM32 °FOvercast.8 mph87%30.11 "Hg10 mi
11:55 PM
Dec 20
32 °FOvercast.12 mph87%30.11 "Hg10 mi
11:35 PM32 °FOvercast.8 mph87%30.11 "Hg10 mi
11:15 PM32 °FOvercast.12 mph88%30.11 "Hg10 mi
10:55 PM32 °FOvercast.8 mph90%30.12 "Hg10 mi
10:35 PM32 °FOvercast.13 mph88%30.12 "Hg10 mi
10:15 PM32 °FOvercast.12 mph87%30.13 "Hg10 mi
9:55 PM32 °FOvercast.14 mph91%30.13 "Hg10 mi
9:15 PM32 °FOvercast.13 mph96%30.13 "Hg10 mi
8:55 PM32 °FOvercast.9 mph96%30.13 "Hg7 mi
8:15 PM32 °FOvercast.8 mph98%30.13 "Hg7 mi
7:55 PM32 °FOvercast.10 mph97%30.13 "Hg7 mi
7:15 PM32 °FOvercast.8 mph98%30.14 "Hg7 mi
6:55 PM32 °FOvercast.9 mph98%30.14 "Hg7 mi
6:15 PM32 °FOvercast.10 mph99%30.15 "Hg7 mi
5:55 PM32 °FOvercast.8 mph98%30.15 "Hg7 mi
5:35 PM32 °FOvercast.8 mph98%30.15 "Hg7 mi
5:15 PM32 °FOvercast.7 mph96%30.14 "Hg7 mi
4:55 PM32 °FOvercast.6 mph99%30.15 "Hg7 mi
4:15 PM32 °FIce fog.6 mph100%30.15 "Hg4 mi
3:35 PM32 °FIce fog.8 mph95%30.16 "Hg5 mi
3:15 PM32 °FIce fog.8 mph92%30.15 "Hg5 mi
2:55 PM32 °FIce fog.8 mph90%30.15 "Hg5 mi
2:15 PM32 °FIce fog.9 mph88%30.14 "Hg5 mi
1:55 PM32 °FIce fog.8 mph88%30.15 "Hg5 mi
1:15 PM32 °FOvercast.8 mph88%30.16 "Hg7 mi
12:55 PM32 °FOvercast.8 mph87%30.16 "Hg7 mi
12:15 PM32 °FIce fog.12 mph87%30.17 "Hg5 mi
11:55 AM32 °FIce fog.10 mph87%30.17 "Hg5 mi
11:15 AM31 °FIce fog.8 mph87%30.18 "Hg5 mi
10:55 AM31 °FIce fog.10 mph88%30.18 "Hg5 mi
10:35 AM31 °FIce fog.8 mph87%30.19 "Hg5 mi
10:15 AM31 °FIce fog.9 mph87%30.19 "Hg5 mi
9:55 AM30 °FIce fog.8 mph88%30.18 "Hg5 mi
9:15 AM30 °FIce fog.8 mph88%30.19 "Hg5 mi
8:55 AM30 °FIce fog.8 mph88%30.19 "Hg5 mi
8:15 AM29 °FOvercast.8 mph87%30.19 "Hg7 mi
7:55 AM29 °FOvercast.9 mph87%30.19 "Hg7 mi
7:15 AM29 °FOvercast.7 mph87%30.19 "Hg7 mi
6:55 AM29 °FOvercast.7 mph88%30.19 "Hg7 mi
6:15 AM29 °FMostly cloudy.6 mph88%30.19 "Hg7 mi
Weather by CustomWeather, © 2014

See weather overviewHow to use our weather pages